Showing default

ION SCV-018, 64575

Orbit data source: Space-Track

ION SCV-018, 64575 is a payload satellite owned by D-ORBIT (IT) in SSO that was launched on Mon, 23 Jun 2025 UTC via an FALCON 9 launch vehicle from the Air Force Western Test Range (AFWTR). Payload-class satellites include a variety of spacecraft equipped with specific instruments for various scientific and technological missions. These include communications satellites like Starlink; space stations such as the ISS; scientific satellites like the Hubble; Earth observation satellites from companies like Planet Labs, Umbra, and HawkEye 360; GPS; miniature CubeSats for education and research; and military/defense satellites.

Loading next visibility...
Identifier
64575, 2025-135AZ
Orbit
SSO
Country
Flag of ITIT
Related business
Manufacturer
D-ORBIT
Mission
Operational Commercial Technology
Bus & Motor
ION-SC, PM200
Mass
220 kg wet, 150 kg dry
Launch date (UTC)
2025-06-23 (7 months ago)
Launch vehicle
FALCON 9
Launch site
Air Force Western Test Range (AFWTR)
Object type
Payload
Rocket body
Debris
Shape & HBR
Box, 0.2 m
Radar Cross Section
0.240 m², Large (>1 m²)

Expand to show TLE details & history
Last TLE update: 22 hours ago

TLE from 22 hours ago
0 ION SCV-018
1 64575U 25135AZ  26035.31955288  .00001671  00000-0  16061-3 0  9992
2 64575  97.7632 151.7442 0013039  21.0861 339.0894 14.94328172 34083
Epoch: 2026-02-04T07:40Z
TLE epoch observation values (Epoch: 2026-02-04T07:40:09.368Z)
Latitude
-0.00005°
Longitude
-97.78266°
Altitude
579.023 km
Speed
7.576 km/s
True Right ascension
10h 06m 58s
True Declination
0° 00' 00"
Sunlit
Object was in full shadow at epoch
Visualization orbit readout
Latitude
Unknown
Longitude
Unknown
Altitude
Unknown
Speed
Unknown
Apparent Right ascension
Unknown
Apparent Declination
Unknown
Sunlit
N/A
Visualization observer readout
Local Sidereal Time
07:51:47
Azimuth
Unknown
Elevation
Unknown
Doppler factor
Unknown
Orbital elements
Apogee altitude
590.549 km
Perigee altitude
572.4 km
Semi-major axis
6,959.611 km
Eccentricity
0.0013
Inclination
97.7632°
RAAN
151.7442°
Arg. of periapsis
21.0861°
True anomaly
339.03599°
Mean anomaly
339.0894°
Eccentric anomaly
339.0627°
Mean motion
3.73823 °/min
Orbital period
96.3 mins
BSTAR
0.00016061
Loading maneuver chart data...
Computing Atmospheric mass density...
Loading historical data...
Loading historical data...
Loading historical data...
Loading historical data...
Loading historical data...
Loading historical data...
Loading historical data...

Documentation

Showing up to 5 results
|